Time,TemperatureF,DewpointF,PressureIn,WindDirection,WindDirectionDegrees,WindSpeedMPH,WindSpeedGustMPH,Humidity,HourlyPrecipIn,Conditions,Clouds,dailyrainin,SoftwareType,DateUTC
2013-06-06 00:02:00,82.0,-99.9,-100.00,South,186,5.0,10.0,-999,-99.99,,,-99.99,,2013-06-06 07:02:00,
2013-06-06 00:12:00,82.0,-99.9,-100.00,South,186,5.0,10.0,-999,-99.99,,,-99.99,,2013-06-06 07:12:00,
2013-06-06 01:20:00,80.0,-99.9,-100.00,NE,39,4.0,6.0,-999,-99.99,,,-99.99,,2013-06-06 08:20:00,
2013-06-06 01:32:00,82.0,-99.9,-100.00,NE,52,3.0,4.0,-999,-99.99,,,-99.99,,2013-06-06 08:32:00,
2013-06-06 01:42:00,82.0,-99.9,-100.00,NE,52,3.0,4.0,-999,-99.99,,,-99.99,,2013-06-06 08:42:00,
2013-06-06 02:02:00,80.0,-99.9,-100.00,NE,39,4.0,6.0,-999,-99.99,,,-99.99,,2013-06-06 09:02:00,
2013-06-06 02:12:00,80.0,-99.9,-100.00,NE,39,4.0,6.0,-999,-99.99,,,-99.99,,2013-06-06 09:12:00,
2013-06-06 02:30:00,79.0,-99.9,-100.00,North,7,2.0,4.0,-999,-99.99,,,-99.99,,2013-06-06 09:30:00,
2013-06-06 03:03:00,80.0,-99.9,-100.00,North,7,0.0,1.0,-999,-99.99,,,-99.99,,2013-06-06 10:03:00,
2013-06-06 03:12:00,80.0,-99.9,-100.00,North,7,0.0,1.0,-999,-99.99,,,-99.99,,2013-06-06 10:12:00,
2013-06-06 03:23:00,79.0,-99.9,-100.00,North,7,2.0,4.0,-999,-99.99,,,-99.99,,2013-06-06 10:23:00,
2013-06-06 03:30:00,76.0,-99.9,-100.00,NNE,14,7.0,9.0,-999,-99.99,,,-99.99,,2013-06-06 10:30:00,
2013-06-06 04:03:00,76.0,-99.9,-100.00,NNE,14,7.0,9.0,-999,-99.99,,,-99.99,,2013-06-06 11:03:00,
2013-06-06 04:12:00,76.0,-99.9,-100.00,NNE,14,7.0,9.0,-999,-99.99,,,-99.99,,2013-06-06 11:12:00,
2013-06-06 04:23:00,76.0,-99.9,-100.00,NNE,14,7.0,9.0,-999,-99.99,,,-99.99,,2013-06-06 11:23:00,
2013-06-06 04:30:00,74.0,-99.9,-100.00,NNE,17,8.0,10.0,-999,-99.99,,,-99.99,,2013-06-06 11:30:00,
2013-06-06 05:23:00,74.0,-99.9,-100.00,NNE,17,8.0,10.0,-999,-99.99,,,-99.99,,2013-06-06 12:23:00,
2013-06-06 05:53:00,74.0,-99.9,-100.00,North,4,6.0,8.0,-999,-99.99,,,-99.99,,2013-06-06 12:53:00,
2013-06-06 06:03:00,74.0,-99.9,-100.00,North,4,6.0,8.0,-999,-99.99,,,-99.99,,2013-06-06 13:03:00,
2013-06-06 07:30:00,76.0,-99.9,-100.00,SSW,205,6.0,6.0,-999,-99.99,,,-99.99,,2013-06-06 14:30:00,
2013-06-06 07:33:00,74.0,-99.9,-100.00,SW,219,2.0,5.0,-999,-99.99,,,-99.99,,2013-06-06 14:33:00,
2013-06-06 07:43:00,74.0,-99.9,-100.00,SW,219,2.0,5.0,-999,-99.99,,,-99.99,,2013-06-06 14:43:00,
2013-06-06 08:23:00,76.0,-99.9,-100.00,SSW,205,6.0,6.0,-999,-99.99,,,-99.99,,2013-06-06 15:23:00,
2013-06-06 09:03:00,79.0,-99.9,-100.00,SSW,200,1.0,4.0,-999,-99.99,,,-99.99,,2013-06-06 16:03:00,
2013-06-06 09:13:00,79.0,-99.9,-100.00,SSW,200,1.0,4.0,-999,-99.99,,,-99.99,,2013-06-06 16:13:00,
2013-06-06 10:00:00,88.0,-99.9,-100.00,NW,305,5.0,7.0,-999,-99.99,,,-99.99,,2013-06-06 17:00:00,
2013-06-06 10:23:00,87.0,-99.9,-100.00,NW,325,4.0,6.0,-999,-99.99,,,-99.99,,2013-06-06 17:23:00,
2013-06-06 10:33:00,88.0,-99.9,-100.00,NW,305,5.0,7.0,-999,-99.99,,,-99.99,,2013-06-06 17:33:00,
2013-06-06 10:43:00,88.0,-99.9,-100.00,NW,305,5.0,7.0,-999,-99.99,,,-99.99,,2013-06-06 17:43:00,
2013-06-06 10:53:00,88.0,-99.9,-100.00,NW,305,5.0,7.0,-999,-99.99,,,-99.99,,2013-06-06 17:53:00,
2013-06-06 11:10:00,94.0,-99.9,-100.00,NW,320,8.0,8.0,-999,-99.99,,,-99.99,,2013-06-06 18:10:00,
2013-06-06 11:53:00,94.0,-99.9,-100.00,NW,320,8.0,8.0,-999,-99.99,,,-99.99,,2013-06-06 18:53:00,
2013-06-06 12:03:00,94.0,-99.9,-100.00,NW,320,8.0,8.0,-999,-99.99,,,-99.99,,2013-06-06 19:03:00,
2013-06-06 13:03:00,98.0,-99.9,-100.00,NNW,342,7.0,10.0,-999,-99.99,,,-99.99,,2013-06-06 20:03:00,
2013-06-06 13:13:00,98.0,-99.9,-100.00,NNW,342,7.0,10.0,-999,-99.99,,,-99.99,,2013-06-06 20:13:00,
2013-06-06 13:23:00,98.0,-99.9,-100.00,NNW,334,4.0,11.0,-999,-99.99,,,-99.99,,2013-06-06 20:23:00,
2013-06-06 13:33:00,99.0,-99.9,-100.00,North,350,6.0,9.0,-999,-99.99,,,-99.99,,2013-06-06 20:33:00,
2013-06-06 13:43:00,99.0,-99.9,-100.00,North,350,6.0,9.0,-999,-99.99,,,-99.99,,2013-06-06 20:43:00,
2013-06-06 13:53:00,99.0,-99.9,-100.00,North,350,6.0,9.0,-999,-99.99,,,-99.99,,2013-06-06 20:53:00,
2013-06-06 14:23:00,100.0,-99.9,-100.00,NNW,343,4.0,15.0,-999,-99.99,,,-99.99,,2013-06-06 21:23:00,
2013-06-06 14:33:00,100.0,-99.9,-100.00,NW,321,6.0,10.0,-999,-99.99,,,-99.99,,2013-06-06 21:33:00,
2013-06-06 14:44:00,100.0,-99.9,-100.00,NW,321,6.0,10.0,-999,-99.99,,,-99.99,,2013-06-06 21:44:00,
2013-06-06 15:10:00,103.0,-99.9,-100.00,WNW,295,6.0,11.0,-999,-99.99,,,-99.99,,2013-06-06 22:10:00,
2013-06-06 15:34:00,102.0,-99.9,-100.00,WNW,298,3.0,9.0,-999,-99.99,,,-99.99,,2013-06-06 22:34:00,
2013-06-06 15:43:00,102.0,-99.9,-100.00,WNW,298,3.0,9.0,-999,-99.99,,,-99.99,,2013-06-06 22:43:00,
2013-06-06 15:53:00,103.0,-99.9,-100.00,WNW,295,6.0,11.0,-999,-99.99,,,-99.99,,2013-06-06 22:53:00,
2013-06-06 16:03:00,103.0,-99.9,-100.00,WNW,295,6.0,11.0,-999,-99.99,,,-99.99,,2013-06-06 23:03:00,
2013-06-06 16:22:00,104.0,-99.9,-100.00,NNE,15,2.0,10.0,-999,-99.99,,,-99.99,,2013-06-06 23:22:00,
2013-06-06 16:33:00,104.0,-99.9,-100.00,NNE,15,2.0,10.0,-999,-99.99,,,-99.99,,2013-06-06 23:33:00,
2013-06-06 16:43:00,104.0,-99.9,-100.00,NNE,15,2.0,10.0,-999,-99.99,,,-99.99,,2013-06-06 23:43:00,
2013-06-06 17:30:00,104.0,-99.9,-100.00,NNE,13,5.0,6.0,-999,-99.99,,,-99.99,,2013-06-07 00:30:00,
2013-06-06 18:22:00,104.0,-99.9,-100.00,NNE,13,5.0,6.0,-999,-99.99,,,-99.99,,2013-06-07 01:22:00,
2013-06-06 19:02:00,104.0,-99.9,-100.00,WNW,290,3.0,6.0,-999,-99.99,,,-99.99,,2013-06-07 02:02:00,
2013-06-06 19:12:00,104.0,-99.9,-100.00,WNW,290,3.0,6.0,-999,-99.99,,,-99.99,,2013-06-07 02:12:00,
2013-06-06 19:22:00,104.0,-99.9,-100.00,WNW,290,3.0,6.0,-999,-99.99,,,-99.99,,2013-06-07 02:22:00,
2013-06-06 19:32:00,103.0,-99.9,-100.00,North,351,4.0,6.0,-999,-99.99,,,-99.99,,2013-06-07 02:32:00,
2013-06-06 19:42:00,103.0,-99.9,-100.00,North,351,4.0,6.0,-999,-99.99,,,-99.99,,2013-06-07 02:42:00,
2013-06-06 19:52:00,103.0,-99.9,-100.00,North,354,3.0,4.0,-999,-99.99,,,-99.99,,2013-06-07 02:52:00,
2013-06-06 20:02:00,102.0,-99.9,-100.00,SW,226,7.0,7.0,-999,-99.99,,,-99.99,,2013-06-07 03:02:00,
2013-06-06 20:10:00,98.0,-99.9,-100.00,SSW,193,1.0,3.0,-999,-99.99,,,-99.99,,2013-06-07 03:10:00,
2013-06-06 20:12:00,102.0,-99.9,-100.00,SW,226,7.0,7.0,-999,-99.99,,,-99.99,,2013-06-07 03:12:00,
2013-06-06 20:22:00,102.0,-99.9,-100.00,SW,226,7.0,7.0,-999,-99.99,,,-99.99,,2013-06-07 03:22:00,
2013-06-06 20:33:00,100.0,-99.9,-100.00,WSW,255,4.0,5.0,-999,-99.99,,,-99.99,,2013-06-07 03:33:00,
2013-06-06 20:44:00,100.0,-99.9,-100.00,WSW,255,4.0,5.0,-999,-99.99,,,-99.99,,2013-06-07 03:44:00,
2013-06-06 20:53:00,98.0,-99.9,-100.00,SSW,193,1.0,3.0,-999,-99.99,,,-99.99,,2013-06-07 03:53:00,
2013-06-06 21:03:00,98.0,-99.9,-100.00,SSW,193,1.0,3.0,-999,-99.99,,,-99.99,,2013-06-07 04:03:00,
2013-06-06 21:33:00,94.0,-99.9,-100.00,WNW,303,3.0,7.0,-999,-99.99,,,-99.99,,2013-06-07 04:33:00,
2013-06-06 21:42:00,94.0,-99.9,-100.00,WNW,303,3.0,7.0,-999,-99.99,,,-99.99,,2013-06-07 04:42:00,
2013-06-06 21:50:00,91.0,-99.9,-100.00,WNW,302,6.0,9.0,-999,-99.99,,,-99.99,,2013-06-07 04:50:00,
2013-06-06 21:54:00,94.0,-99.9,-100.00,WNW,303,3.0,7.0,-999,-99.99,,,-99.99,,2013-06-07 04:54:00,
2013-06-06 22:03:00,92.0,-99.9,-100.00,NW,321,7.0,10.0,-999,-99.99,,,-99.99,,2013-06-07 05:03:00,
2013-06-06 22:12:00,92.0,-99.9,-100.00,NW,321,7.0,10.0,-999,-99.99,,,-99.99,,2013-06-07 05:12:00,
2013-06-06 22:23:00,92.0,-99.9,-100.00,NW,321,7.0,10.0,-999,-99.99,,,-99.99,,2013-06-07 05:23:00,
2013-06-06 22:32:00,91.0,-99.9,-100.00,WNW,302,6.0,9.0,-999,-99.99,,,-99.99,,2013-06-07 05:32:00,
2013-06-06 22:43:00,91.0,-99.9,-100.00,WNW,302,6.0,9.0,-999,-99.99,,,-99.99,,2013-06-07 05:43:00,
2013-06-06 23:23:00,88.0,-99.9,-100.00,SW,236,3.0,3.0,-999,-99.99,,,-99.99,,2013-06-07 06:23:00,
2013-06-06 23:32:00,88.0,-99.9,-100.00,SW,236,3.0,3.0,-999,-99.99,,,-99.99,,2013-06-07 06:32:00,